Lafayette, LA

12:42 PM CDT on April 25, 2017 (GMT -0500)
Lafayette Regional

Weather History for KLFT - August, 2011

Change the Weather History Date:

Sunday, August 14, 2011

  Actual Average Record
Temperature  
Mean Temperature 87 °F 84 °F  
Max Temperature 97 °F 93 °F 100 °F (1951)
Min Temperature 77 °F 75 °F 60 °F (1931)
Cooling Degree Days 22 19  
Month to date cooling degree days 293 266  
Year to date cooling degree days 2330 1950  
Since 1 June cooling degree days 1482 1336  
Growing Degree Days 36 (Base 50)    
Moisture  
Dew Point 74 °F    
Average Humidity 67    
Maximum Humidity 88    
Minimum Humidity 46    
Precipitation  
Precipitation 0.13 in 0.14 in 1.82 in (1934)
Month to date precipitation 0.19 2.10  
Year to date precipitation 21.75 38.10  
Sea Level Pressure  
Sea Level Pressure 29.94 in    
Wind  
Wind Speed 5 mph (West)    
Max Wind Speed 29 mph    
Max Gust Speed 37 mph    
Visibility 10 miles    
Events Rain    
T = Trace of Precipitation, MM = Missing Value Source: NWS Daily Summary

Daily Weather History Graph

Daily Weather History Graph

Search for Another Location

Airport or City:

Trip Planner

Search our weather history database for the weather conditions in past years. The results will help you decide how hot, cold, wet, or windy it might be!

Date:

Astronomy

Aug. 14, 2011 Rise Set
Actual Time 6:34 AM CDT 7:50 PM CDT
Civil Twilight 6:09 AM CDT 8:15 PM CDT
Nautical Twilight 5:38 AM CDT 8:45 PM CDT
Astronomical Twilight 5:07 AM CDT 9:16 PM CDT
Moon 8:11 PM CDT (8/14) 7:20 AM CDT (8/14)
Length of Visible Light 14h 06m
Length of Day
13h 16m
Full, 99% of the Moon is Illuminated
Aug 14
Full
Aug 21
Last Quarter
Aug 28
New
Sep 4
First Quarter
Sep 12
Full

Hourly Weather History & Observations

Time (CDT) Temp. Heat Index Dew Point Humidity Pressure Visibility Wind Dir Wind Speed Gust Speed Precip Events Conditions
12:53 AM 81.0 °F 87.3 °F 75.9 °F 85% 29.98 in 10.0 mi NE 3.5 mph - N/A   Mostly Cloudy
1:53 AM 81.0 °F 87.3 °F 75.9 °F 85% 29.96 in 10.0 mi Calm Calm - N/A   Clear
2:53 AM 80.1 °F 85.4 °F 75.9 °F 87% 29.96 in 10.0 mi SSW 3.5 mph - N/A   Clear
3:53 AM 80.1 °F 85.4 °F 75.9 °F 87% 29.95 in 10.0 mi SW 3.5 mph - N/A   Clear
4:53 AM 81.0 °F 87.3 °F 75.9 °F 85% 29.95 in 10.0 mi West 3.5 mph - N/A   Clear
5:53 AM 81.0 °F 87.3 °F 75.9 °F 85% 29.96 in 10.0 mi WSW 3.5 mph - N/A   Clear
6:53 AM 81.0 °F 87.3 °F 75.9 °F 85% 29.96 in 10.0 mi West 4.6 mph - N/A   Clear
7:53 AM 84.0 °F 93.7 °F 77.0 °F 79% 29.97 in 10.0 mi West 5.8 mph - N/A   Scattered Clouds
8:53 AM 86.0 °F 96.9 °F 77.0 °F 74% 29.96 in 10.0 mi WNW 10.4 mph - N/A   Clear
9:53 AM 89.1 °F 98.0 °F 73.9 °F 61% 29.97 in 10.0 mi West 11.5 mph - N/A   Clear
10:53 AM 91.9 °F 103.2 °F 75.0 °F 58% 29.97 in 10.0 mi WNW 8.1 mph - N/A   Partly Cloudy
11:53 AM 93.9 °F 103.4 °F 73.0 °F 51% 29.96 in 10.0 mi NW 5.8 mph - N/A   Clear
12:53 PM 95.0 °F 102.5 °F 71.1 °F 46% 29.94 in 10.0 mi West 6.9 mph - N/A   Scattered Clouds
1:53 PM 80.6 °F 84.6 °F 71.6 °F 74% 29.95 in 10.0 mi NNW 19.6 mph 32.2 mph N/A Rain Light Rain
2:22 PM 80.6 °F 84.6 °F 71.6 °F 74% 29.93 in 10.0 mi West 9.2 mph - 0.13 in Rain Light Rain
2:30 PM 80.6 °F 84.6 °F 71.6 °F 74% 29.93 in 10.0 mi NW 5.8 mph - 0.13 in   Mostly Cloudy
2:53 PM 80.6 °F 86.2 °F 75.2 °F 84% 29.91 in 10.0 mi Calm Calm - N/A   Scattered Clouds
3:53 PM 82.4 °F 89.5 °F 75.2 °F 79% 29.90 in 10.0 mi West 5.8 mph - N/A   Clear
4:53 PM 86.0 °F 93.0 °F 73.0 °F 65% 29.92 in 10.0 mi SSW 3.5 mph - N/A   Partly Cloudy
5:53 PM 84.9 °F 92.1 °F 73.9 °F 69% 29.92 in 10.0 mi SSE 3.5 mph - N/A   Clear
6:53 PM 84.0 °F 91.2 °F 73.9 °F 72% 29.90 in 10.0 mi Calm Calm - N/A   Clear
7:53 PM 82.0 °F 87.4 °F 73.0 °F 74% 29.89 in 10.0 mi West 3.5 mph - N/A   Clear
8:53 PM 80.6 °F 85.4 °F 73.4 °F 79% 29.89 in 10.0 mi WNW 4.6 mph - N/A   Clear
9:53 PM 79.0 °F - 73.9 °F 84% 29.90 in 10.0 mi West 4.6 mph - N/A   Clear
10:53 PM 78.1 °F - 73.0 °F 84% 29.91 in 10.0 mi Calm Calm - N/A   Clear
11:53 PM 77.0 °F - 73.0 °F 88% 29.91 in 10.0 mi Calm Calm - N/A   Clear